Regional Weather Roundup
Issued by NWS

Home | Current Version | Previous Version | Text Only | Print | Product List | Glossary On
Versions: 1 2 3 4 5 6 7 8 9 10 11 12 13 14 15 16 17 18 19 20 21 22 23 24 25 26 27 28 29 30 31 32 33 34 35 36 37 38 39 40 41 42 43 44 45 46 47 48 49 50
000
ASUS43 KDMX 060507
RWRIA

WEATHER ROUNDUP FOR IOWA
NATIONAL WEATHER SERVICE DES MOINES IA
1200 AM CDT MON JUL 06 2015

NOTE: "FAIR" INDICATES FEW OR NO CLOUDS BELOW 12,000 FEET WITH NO
SIGNIFICANT WEATHER AND/OR OBSTRUCTIONS TO VISIBILITY.

* - THESE STATIONS ARE NOT NWS STATIONS...THUS NOT UNDER NWS
QUALITY CONTROL.  THEY ALSO DO NOT REPORT WEATHER SUCH
AS PRECIPITATION OR FOG.

IAZ001>003-012>014-020>022-031>034-043>046-060600-
   NORTHWEST IOWA

CITY           SKY/WX    TMP DP  RH WIND       PRES   REMARKS
CARROLL *      PTCLDY    75  72  88 S8        29.84S
CHEROKEE *     CLOUDY    77  72  83 S8        29.77F
DENISON *      MOCLDY    77  75  94 S16G25    29.81F FOG
LE MARS *      CLEAR     79  73  83 SE13G20   29.73F HX  82
ORANGE CITY *  CLEAR     77  72  83 S10G17    29.74F
SHELDON *      CLEAR     77  75  94 SE14      29.74F
SIOUX CITY     CLOUDY    81  72  74 SE13      29.74F HX  85
SPENCER        CLOUDY    78  69  73 SE15      29.78F HX  80
STORM LAKE *   PTCLDY    75  72  88 SE12      29.80F
$$

IAZ055>058-069>071-079>083-090>094-060600-
   SOUTHWEST IOWA

CITY           SKY/WX    TMP DP  RH WIND       PRES   REMARKS
ATLANTIC *     MOCLDY    79  75  89 S12       29.84R HX  82
AUDUBON *      CLEAR     77  72  83 S8        29.86S
CLARINDA *     CLEAR     81  81 100 S9G16     29.86S HX  91
COUNCIL BLFS *   N/A     79  75  89 S9        29.83F HX  82
CRESTON *      CLEAR     77  73  88 S10G17    29.89R
HARLAN  *      PTCLDY    79  79 100 S12       29.87R HX  83
LAMONI         PTCLDY    78  72  81 SE10      29.89S HX  80
RED OAK *      PTCLDY    81  75  83 S10G17    29.83S HX  86
SHENANDOAH *   CLEAR     81  75  83 S12G18    29.83R HX  86
$$

IAZ047>049-059>061-072>074-084-060600-
   CENTRAL IOWA

CITY           SKY/WX    TMP DP  RH WIND       PRES   REMARKS
AMES           CLEAR     73  66  78 SE9       29.87F
ANKENY *       CLEAR     75  70  83 S8        29.88S
CHARITON *     CLEAR     75  70  83 S10G17    29.91S
DES MOINES     PTCLDY    77  68  73 S12       29.88S
GRINNELL*      CLEAR     73  68  83 SE8       29.93S
KNOXVILLE *    CLEAR     75  68  78 SE9       29.89S
MARSHALLTOWN   CLEAR     72  68  87 SE8       29.90S
PELLA *        CLEAR     74  71  91 SE6       29.92S
PERRY *          N/A     75  70  83 SE10      29.85F
$$

IAZ004>006-015-016-023>025-035-036-060600-
   NORTH CENTRAL IOWA

CITY           SKY/WX    TMP DP  RH WIND       PRES   REMARKS
ALGONA *       CLEAR     75  70  83 S14G21    29.83F
CLARION *      CLEAR     75  66  73 S16G23    29.85F
ESTHERVILLE    CLOUDY    75  69  81 S16       29.80F
FORT DODGE *   PTCLDY    75  66  73 S10G16    29.85F
MASON CITY     MOCLDY    73  67  81 S13       29.88F
FOREST CITY *  CLEAR     72  64  78 SE9       29.85F
IOWA FALLS *     N/A     72  68  88 SE8       29.89F
$$

IAZ007>011-017>019-026>030-037>042-050>054-066-060600-
   NORTHEAST IOWA

CITY           SKY/WX    TMP DP  RH WIND       PRES   REMARKS
CEDAR RAPIDS   CLEAR     73  70  90 S9        29.93R
CHARLES CITY * CLEAR     72  72 100 S8        29.90S FOG
CLINTON *      CLEAR     70  63  78 S7        29.99R
DECORAH *        N/A    N/A N/A N/A MISG        N/A
DUBUQUE        CLEAR     68  64  87 S10       29.95S
MONTICELLO *   CLEAR     70  70 100 SE6       29.95R
OELWEIN *      CLEAR     70  70 100 S10       29.93S FOG
WATERLOO       CLEAR     74  69  85 S12       29.90S
$$

IAZ064-065-067-068-078-060600-
   EAST CENTRAL IOWA

CITY           SKY/WX    TMP DP  RH WIND       PRES   REMARKS
DAVENPORT      CLEAR     72  65  78 S10       29.96F
IOWA CITY      CLEAR     72  69  90 SE6       29.95R
MT. PLEASANT * CLEAR     73  64  73 S8        29.95R
MUSCATINE *    CLEAR     72  68  88 SE7       29.94F
QUAD CITIES    CLEAR     71  65  81 SE9       29.95S
$$

IAZ062-063-075>077-085>089-095>099-060600-
   SOUTHEAST IOWA

CITY           SKY/WX    TMP DP  RH WIND       PRES   REMARKS
BURLINGTON     CLEAR     74  69  85 S10       29.95F
FAIRFIELD *    CLEAR     73  68  83 S7        29.94R
FORT MADISON * CLEAR     72  68  88 S10       29.96S
KEOKUK *       CLEAR     73  68  83 SE9       29.95R
OSKALOOSA *      N/A     72  68  88 S6        29.93R
CENTERVILLE *  CLEAR     73  68  83 S9        29.94R
OTTUMWA        CLEAR     74  69  85 S9        29.91R
WASHINGTON *   CLEAR     72  70  94 S7        29.95S
$$

ABBREVIATIONS USED IN REMARKS
   TC - TEMPERATURES IN CELSIUS
  WCI - WIND CHILL INDEX
   HX - HEAT INDEX
  VSB - VISIBILITY
$$



USA.gov is the U.S. government's official web portal to all federal, state and local government web resources and services.